Location: Lafig�re
(44.4503°N, 4.0357°E)
Time: 01:45:25
(UTC+00:00)

Transit 4A - Pass Details

Date: 21 January 2021
Orbit: 866 x 979 km, 66.8° (Epoch: 24 February)

Event Time Altitude Azimuth Distance (km) Brightness Sun altitude
Rises 22:33:26 0° 289° (WNW) 3,680 - -59.9°
Reaches altitude 10° 22:38:21 10° 322° (NW) 2,724 - -60.5°
Maximum altitude 22:40:18 11° 340° (NNW) 2,617 - -60.7°
Drops below altitude 10° 22:42:15 10° 359° (N) 2,711 - -60.9°
Sets 22:47:07 0° 32° (NNE) 3,634 - -61.5°
